Location: Unspecified
(0.0000°N, 0.0000°E)
Time: 04:29:06
(UTC+00:00)

IBEX - Pass Details

Date: 24 May 2019
Orbit: 43050 x 333428 km, 30.2° (Epoch: 06 August)

Event Time Altitude Azimuth Distance (km) Brightness Sun altitude
Rises 19:32:53 0° 84° (E) 304,807 ? -22.4°
Reaches altitude 10° 20:14:06 10° 84° (E) 304,783 ? -31.9°
Maximum altitude 01:35:46 85° 359° (N) 307,460 ? -58.2°
Drops below altitude 10° 06:56:53 10° 274° (W) 319,384 ? 14.0°
Sets 07:37:54 0° 274° (W) 321,281 ? 23.5°
